Flag for Canada Weather past 2 weeks in Gander, Newfoundland and Labrador, Canada

Now
59 °F

Partly sunny.


Feels Like: 55 °F
Forecast: 39 / 58 °F
Wind: 25 mph from Southwest

Location: Gander Int. Airport

Current Time: Sep 20, 2014 at 4:25:29 PM

Latest Report: Sep 20, 2014 at 3:30 PM


Visibility: 20 mi

Pressure: 30.03 "Hg

Humidity: 42%

Dew point: 36 °F

Location of GanderLocation

Historic Weather in Gander — Graph

°F

Gander temperature yesterday

Maximum temperature yesterday: 52 °F (at 12:30 AM)
Minimum temperature yesterday: 41 °F (at 7:30 PM)
Average temperature yesterday: 48 °F

Past Weeks' High & Low Weather Summary

 TemperatureHumidityPressure
High75 °F (Sep 6, 3:30 PM)100% (Sep 6, 3:30 AM)30.48 "Hg (Sep 6, 3:30 AM)
Low39 °F (Sep 14, 12:30 AM)39% (Sep 9, 2:30 PM)29.57 "Hg (Sep 12, 4:30 PM)
Average55 °F78%30.01 "Hg
* Reported Sep 5 2:30 PM — Sep 20 2:30 PM, Gander, Weather by CustomWeather, © 2014

Note: Actual official high and low records may vary slightly from our data, if they occured in-between our weather recording intervals... More about our weather records

Advertising

Gander weather history for previous 24 hours

 ConditionsComfort  
Time TempWeatherWind HumidityBarometerVisibility
2:30 PM
Sep 20
59 °FPartly sunny.28 mph39%30.04 "Hg20 mi
10:30 AM48 °FBroken clouds.14 mph71%30.14 "Hg20 mi
9:30 AM46 °FBroken clouds.14 mph71%30.16 "Hg20 mi
8:30 AM43 °FScattered clouds.14 mph81%30.17 "Hg20 mi
7:30 AM39 °FPassing clouds.15 mph87%30.16 "Hg20 mi
6:30 AM39 °FPassing clouds.15 mph87%30.14 "Hg20 mi
5:30 AM39 °FPassing clouds.16 mph87%30.11 "Hg20 mi
4:30 AM39 °FPassing clouds.16 mph81%30.07 "Hg20 mi
3:30 AM41 °FPassing clouds.15 mph76%30.06 "Hg20 mi
2:30 AM41 °FPassing clouds.18 mph76%30.03 "Hg20 mi
1:30 AM41 °FPassing clouds.17 mph70%30.02 "Hg20 mi
12:30 AM41 °FPassing clouds.20 mph66%30.01 "Hg20 mi
11:30 PM
Sep 19
41 °FPassing clouds.13 mph66%30.00 "Hg20 mi
10:30 PM41 °FPassing clouds.12 mph61%30.00 "Hg20 mi
9:30 PM41 °FPassing clouds.14 mph66%29.98 "Hg20 mi
8:30 PM43 °FPassing clouds.12 mph66%29.96 "Hg20 mi
7:30 PM41 °FPassing clouds.7 mph76%29.94 "Hg20 mi
6:30 PM45 °FPartly sunny.10 mph66%29.92 "Hg20 mi
5:30 PM48 °FScattered clouds.13 mph62%29.89 "Hg20 mi
4:30 PM50 °FScattered clouds.18 mph54%29.87 "Hg20 mi
Weather by CustomWeather, © 2014

See weather overviewHow to use our weather pages